{"data":{"norad_id":52349,"intl_designator":"2022-045U","name":"STARLINK-3819","alt_names":[],"object_type":"PAYLOAD","status":"ACTIVE","operator":null,"country":"US","launch_date":"2022-04-29","launch_site_code":"AFETR","launch_vehicle":null,"mission":null,"orbit_class":"UNKNOWN","rcs_meters":null,"size_class":null,"mass_kg":null,"dimensions":null,"purposes":["comms"],"wikipedia_slug":null,"has_3d_model":false,"image_url":null,"decayed_at":null,"tle_current":{"epoch":"2026-05-25T05:14:19.971744Z","epoch_age_seconds":55905,"freshness":"FRESH","line1":"1 52349U 22045U   26145.21828671 -.00000780  00000+0 -30930-4 0  9994","line2":"2 52349  53.2123 215.5701 0001444  96.2194 263.8962 15.08840512227333","mean_motion":15.08840512,"eccentricity":0.0001444,"inclination_deg":53.2123,"raan_deg":215.5701,"arg_perigee_deg":96.2194,"mean_anomaly_deg":263.8962,"bstar":-3.093e-5,"rev_number":22733,"period_min":95.437522292615,"perigee_km":538.74288228319,"apogee_km":540.74076568756,"semimajor_km":6917.8788239854,"source":"CELESTRAK","updated_at":"2026-05-25T13:38:17.116399Z"}}}